CCA1692 ZSPD-ZSAM

Flight info

Callsign CCA1692
Flight time N/A
Altitude 25600
Route NXD81D/17L NXD W131 AKDIM A470 ENVEN ENVE8X
Aircraft B738/M-SDE3GHIJ2J3J5M1RVWXY/LB2D1

Departure

Time N/A
Airport Shanghai Pudong International Airport (ZSPD)

Arrival

Time 2026-05-04 15:36
Airport Xiamen Gaoqi International Airport (ZSAM)
Time Latitude Longitude Altitude Speed Heading
2026-05-04 14:59 26.41224 119.55045 25770 ft 473 kts 188°
2026-05-04 15:00 26.37951 119.55025 25766 ft 470 kts 188°
2026-05-04 15:00 26.34640 119.54996 25767 ft 471 kts 188°
2026-05-04 15:00 26.31361 119.54961 25766 ft 468 kts 188°
2026-05-04 15:01 26.24837 119.54800 25766 ft 469 kts 191°
2026-05-04 15:01 26.21611 119.54418 25762 ft 461 kts 196°
2026-05-04 15:01 26.18487 119.53719 25763 ft 455 kts 200°
2026-05-04 15:01 26.15432 119.52812 25767 ft 453 kts 203°
2026-05-04 15:02 26.12393 119.51795 25759 ft 454 kts 204°
2026-05-04 15:02 26.09389 119.50743 25758 ft 454 kts 204°
2026-05-04 15:02 26.06353 119.49669 25757 ft 453 kts 204°
2026-05-04 15:02 26.03315 119.48595 25758 ft 454 kts 204°
2026-05-04 15:03 26.00318 119.47543 25761 ft 453 kts 204°
2026-05-04 15:03 25.97281 119.46485 25767 ft 452 kts 204°
2026-05-04 15:03 25.94299 119.45455 25769 ft 453 kts 204°
2026-05-04 15:03 25.91258 119.44408 25767 ft 455 kts 204°
2026-05-04 15:04 25.88221 119.43369 25767 ft 452 kts 204°
2026-05-04 15:04 25.85186 119.42334 25766 ft 454 kts 203°
2026-05-04 15:04 25.82140 119.41299 25763 ft 453 kts 203°
2026-05-04 15:04 25.79097 119.40259 25760 ft 453 kts 204°
2026-05-04 15:05 25.76168 119.39037 25760 ft 448 kts 210°
2026-05-04 15:05 25.73449 119.37357 25762 ft 441 kts 219°
2026-05-04 15:05 25.71104 119.35229 25763 ft 437 kts 226°
2026-05-04 15:05 25.68905 119.32840 25759 ft 437 kts 229°
2026-05-04 15:06 25.66829 119.30420 25764 ft 435 kts 230°
2026-05-04 15:06 25.64754 119.27945 25759 ft 436 kts 230°
2026-05-04 15:06 25.62693 119.25472 25759 ft 435 kts 230°
2026-05-04 15:07 25.58594 119.20569 25757 ft 434 kts 230°
2026-05-04 15:07 25.56515 119.18097 25756 ft 436 kts 230°
2026-05-04 15:07 25.54455 119.15661 25753 ft 436 kts 230°
2026-05-04 15:07 25.52370 119.13202 25750 ft 437 kts 230°
2026-05-04 15:08 25.50285 119.10748 25748 ft 437 kts 230°
2026-05-04 15:08 25.48189 119.08290 25754 ft 438 kts 230°
2026-05-04 15:08 25.46113 119.05862 25753 ft 437 kts 230°
2026-05-04 15:08 25.44026 119.03422 25748 ft 438 kts 230°
2026-05-04 15:09 25.41927 119.00970 25750 ft 438 kts 229°
2026-05-04 15:09 25.39815 118.98505 25749 ft 438 kts 230°
2026-05-04 15:09 25.37709 118.96048 25754 ft 438 kts 230°
2026-05-04 15:10 25.33522 118.91165 25750 ft 438 kts 230°
2026-05-04 15:10 25.31444 118.88696 25747 ft 438 kts 231°
2026-05-04 15:10 25.27447 118.83855 25748 ft 437 kts 231°
2026-05-04 15:11 25.25388 118.81348 25745 ft 436 kts 231°
2026-05-04 15:11 25.23359 118.78879 25737 ft 437 kts 231°
2026-05-04 15:11 25.21314 118.76393 25738 ft 437 kts 231°
2026-05-04 15:11 25.19274 118.73920 25740 ft 437 kts 231°
2026-05-04 15:12 25.17205 118.71416 25740 ft 437 kts 230°
2026-05-04 15:12 25.15158 118.68942 25738 ft 438 kts 231°
2026-05-04 15:12 25.13116 118.66478 25740 ft 437 kts 231°
2026-05-04 15:12 25.11040 118.63974 25738 ft 438 kts 231°
2026-05-04 15:13 25.08990 118.61508 25739 ft 439 kts 231°
2026-05-04 15:13 25.06881 118.59016 25738 ft 438 kts 230°
2026-05-04 15:13 25.04781 118.56587 25739 ft 438 kts 230°
2026-05-04 15:13 25.02676 118.54174 25737 ft 439 kts 230°
2026-05-04 15:14 25.00546 118.51742 25735 ft 439 kts 230°
2026-05-04 15:14 24.98420 118.49318 25735 ft 440 kts 229°
2026-05-04 15:14 24.96295 118.46892 25735 ft 439 kts 230°
2026-05-04 15:14 24.94193 118.44492 25734 ft 440 kts 230°
2026-05-04 15:15 24.92063 118.42059 25730 ft 440 kts 230°
2026-05-04 15:15 24.89934 118.39625 25732 ft 441 kts 230°
2026-05-04 15:15 24.87796 118.37182 25732 ft 441 kts 230°
2026-05-04 15:16 24.83536 118.32312 25732 ft 440 kts 229°
2026-05-04 15:16 24.81515 118.29753 25727 ft 437 kts 238°
2026-05-04 15:16 24.79651 118.23667 25247 ft 418 kts 267°
2026-05-04 15:17 24.80044 118.20531 24799 ft 413 kts 283°
2026-05-04 15:17 24.83285 118.15327 23458 ft 415 kts 313°
2026-05-04 15:17 24.85440 118.13307 22961 ft 395 kts 313°
2026-05-04 15:18 24.87470 118.11394 22487 ft 377 kts 313°
2026-05-04 15:18 24.89346 118.09499 22032 ft 357 kts 307°
2026-05-04 15:18 24.90909 118.07471 21593 ft 337 kts 299°
2026-05-04 15:19 24.92937 118.03158 20807 ft 301 kts 284°
2026-05-04 15:19 24.93340 118.00980 20445 ft 280 kts 269°
2026-05-04 15:19 24.92297 117.97155 19800 ft 254 kts 236°
2026-05-04 15:20 24.91093 117.95790 19528 ft 246 kts 224°
2026-05-04 15:20 24.89693 117.94761 19248 ft 239 kts 216°
2026-05-04 15:20 24.88233 117.93935 18990 ft 231 kts 211°
2026-05-04 15:20 24.86719 117.93374 18751 ft 231 kts 199°
2026-05-04 15:21 24.85069 117.93162 18483 ft 240 kts 189°
2026-05-04 15:21 24.83389 117.93257 18203 ft 243 kts 182°
2026-05-04 15:21 24.80063 117.94122 17690 ft 245 kts 174°
2026-05-04 15:22 24.78433 117.94613 17455 ft 244 kts 174°
2026-05-04 15:22 24.76797 117.95109 17094 ft 241 kts 173°
2026-05-04 15:22 24.73551 117.96121 16189 ft 241 kts 173°
2026-05-04 15:23 24.71940 117.96632 15773 ft 239 kts 173°
2026-05-04 15:23 24.70346 117.97138 15346 ft 238 kts 173°
2026-05-04 15:23 24.68735 117.97649 14904 ft 238 kts 173°
2026-05-04 15:23 24.67153 117.98151 14461 ft 238 kts 173°
2026-05-04 15:24 24.63995 117.99151 13606 ft 236 kts 173°
2026-05-04 15:24 24.60860 118.00137 12755 ft 234 kts 173°
2026-05-04 15:25 24.59289 118.00631 12321 ft 233 kts 173°
2026-05-04 15:25 24.57711 118.01002 11894 ft 226 kts 185°
2026-05-04 15:25 24.56241 118.00747 11461 ft 211 kts 213°
2026-05-04 15:26 24.54137 117.98665 10580 ft 204 kts 232°
2026-05-04 15:26 24.53188 117.97503 10167 ft 203 kts 232°
2026-05-04 15:26 24.51355 117.95291 9578 ft 190 kts 232°
2026-05-04 15:27 24.50455 117.94199 9134 ft 193 kts 232°
2026-05-04 15:27 24.48655 117.92026 8347 ft 194 kts 231°
2026-05-04 15:28 24.46853 117.89866 7710 ft 184 kts 231°
2026-05-04 15:28 24.46000 117.88850 7424 ft 179 kts 230°
2026-05-04 15:28 24.44177 117.86982 6870 ft 185 kts 211°
2026-05-04 15:29 24.42916 117.86609 6488 ft 192 kts 182°
2026-05-04 15:30 24.39212 117.90057 4855 ft 189 kts 94°
2026-05-04 15:30 24.40622 117.93607 4066 ft 157 kts 51°
2026-05-04 15:31 24.41969 117.95480 3689 ft 154 kts 52°
2026-05-04 15:31 24.42628 117.96399 3487 ft 152 kts 52°
2026-05-04 15:32 24.44554 117.99061 2900 ft 146 kts 52°
2026-05-04 15:32 24.45813 118.00816 2508 ft 145 kts 52°
2026-05-04 15:33 24.47041 118.02581 2173 ft 147 kts 53°
2026-05-04 15:34 24.48714 118.04950 1592 ft 125 kts 53°
2026-05-04 15:34 24.49256 118.05705 1429 ft 124 kts 52°
2026-05-04 15:34 24.50345 118.07218 1101 ft 129 kts 52°
2026-05-04 15:35 24.51489 118.08762 735 ft 131 kts 47°
2026-05-04 15:35 24.52102 118.09526 562 ft 134 kts 51°
2026-05-04 15:35 24.52660 118.10349 383 ft 133 kts 52°
2026-05-04 15:36 24.53790 118.11897 73 ft 125 kts 51°
2026-05-04 15:36 24.54175 118.12431 71 ft 58 kts 51°
2026-05-04 15:36 24.54352 118.12682 71 ft 35 kts 47°
2026-05-04 15:37 24.54489 118.12901 71 ft 33 kts 75°
2026-05-04 15:37 24.54527 118.13062 71 ft 12 kts 79°
2026-05-04 15:37 24.54502 118.13150 71 ft 14 kts 167°
2026-05-04 15:37 24.54407 118.13189 71 ft 16 kts 143°
2026-05-04 15:38 24.54308 118.13180 71 ft 18 kts 234°
2026-05-04 15:38 24.54223 118.13059 71 ft 21 kts 232°
2026-05-04 15:38 24.54126 118.12921 71 ft 23 kts 230°
2026-05-04 15:38 24.54050 118.12817 71 ft 12 kts 185°
2026-05-04 15:39 24.54013 118.12839 71 ft 1 kts 147°
2026-05-04 15:39 24.54000 118.12849 71 ft 0 kts 142°